Weather History for KSSI - April, 2013

Change the Weather History Date:

Friday, April 5, 2013

  Actual Average Record
Temperature  
Mean Temperature 55 °F 64 °F  
Max Temperature 59 °F 73 °F 87 °F (1978)
Min Temperature 50 °F 56 °F 42 °F (1975)
Degree Days  
Heating Degree Days 10 3  
Month to date heating degree days 14 15  
Since 1 July heating degree days 1242 1443  
Cooling Degree Days 0 2  
Month to date cooling degree days 6 10  
Year to date cooling degree days 45 50  
Growing Degree Days 4 (Base 50)    
Moisture  
Dew Point 51 °F    
Average Humidity 86    
Maximum Humidity 100    
Minimum Humidity 72    
Precipitation  
Precipitation 0.32 in 0.10 in 3.25 in (1949)
Month to date precipitation 0.91 0.50  
Year to date precipitation 7.13 11.07  
Snow  
Snow 0.00 in - 0.00 in ()
Month to date snowfall 0.0  
Since 1 July snowfall 0.0  
Snow Depth 0.00 in    
Sea Level Pressure  
Sea Level Pressure 29.92 in    
Wind  
Wind Speed 6 mph (North)    
Max Wind Speed 16 mph    
Max Gust Speed 29 mph    
Visibility 8 miles    
Events Rain , Thunderstorm    
T = Trace of Precipitation, MM = Missing Value Source: NWS Daily Summary

Daily Weather History Graph

Daily Weather History Graph

Search for Another Location

Airport or City:

Trip Planner

Search our weather history database for the weather conditions in past years. The results will help you decide how hot, cold, wet, or windy it might be!

Date:

Astronomy

Apr. 05, 2013 Rise Set
Actual Time 7:09 AM EDT 7:47 PM EDT
Civil Twilight 6:44 AM EDT 8:12 PM EDT
Nautical Twilight 6:15 AM EDT 8:40 PM EDT
Astronomical Twilight 5:46 AM EDT 9:10 PM EDT
Moon 3:57 AM EDT (4/5) 3:26 PM EDT (4/5)
Length of Visible Light 13h 27m
Length of Day
12h 38m
Waning Crescent, 24% of the Moon is Illuminated
Apr 5
Waning Crescent
Apr 10
New
Apr 18
First Quarter
Apr 25
Full
May 2
Last Quarter

Hourly Weather History & Observations

Time (EDT) Temp. Dew Point Humidity Pressure Visibility Wind Dir Wind Speed Gust Speed Precip Events Conditions
12:07 AM 57.2 °F 55.4 °F 94% 29.92 in 10.0 mi Variable 4.6 mph - N/A   Overcast
12:44 AM 57.2 °F 55.4 °F 94% 29.90 in 10.0 mi NNW 3.5 mph - N/A   Overcast
12:53 AM 57.0 °F 55.0 °F 93% 29.91 in 10.0 mi North 5.8 mph - N/A   Overcast
1:37 AM 55.4 °F 53.6 °F 94% 29.90 in 10.0 mi NE 4.6 mph - N/A   Overcast
1:53 AM 55.9 °F 55.0 °F 97% 29.91 in 10.0 mi North 3.5 mph - N/A   Overcast
2:04 AM 55.4 °F 55.4 °F 100% 29.91 in 10.0 mi NNW 4.6 mph - N/A   Overcast
2:39 AM 55.4 °F 53.6 °F 94% 29.91 in 7.0 mi North 5.8 mph - N/A   Overcast
2:53 AM 55.0 °F 54.0 °F 96% 29.91 in 5.0 mi North 4.6 mph - N/A   Overcast
3:38 AM 53.6 °F 53.6 °F 100% 29.90 in 2.0 mi North 6.9 mph - 0.00 in Rain Light Rain
3:53 AM 54.0 °F 53.1 °F 97% 29.89 in 2.0 mi North 5.8 mph - 0.00 in Rain Light Rain
4:22 AM 53.6 °F 51.8 °F 94% 29.86 in 4.0 mi North 6.9 mph - 0.01 in Rain Light Rain
4:53 AM 53.1 °F 51.1 °F 93% 29.86 in 5.0 mi NNW 8.1 mph - 0.01 in   Overcast
5:06 AM 51.8 °F 51.8 °F 100% 29.88 in 4.0 mi NNW 9.2 mph - 0.00 in Rain Light Rain
5:14 AM 51.8 °F 50.0 °F 94% 29.89 in 6.0 mi NNW 6.9 mph 17.3 mph 0.00 in Rain , Thunderstorm Light Rain
5:28 AM 51.8 °F 50.0 °F 94% 29.88 in 3.0 mi North 5.8 mph - 0.04 in Rain , Thunderstorm Thunderstorms and Rain
5:33 AM 51.8 °F 50.0 °F 94% 29.88 in 2.5 mi North 9.2 mph - 0.06 in Rain , Thunderstorm Thunderstorms and Rain
5:38 AM 51.8 °F 50.0 °F 94% 29.87 in 4.0 mi NNE 10.4 mph - 0.07 in Rain , Thunderstorm Light Thunderstorms and Rain
5:53 AM 51.1 °F 50.0 °F 96% 29.86 in 5.0 mi North 6.9 mph - 0.10 in Rain Light Rain
6:02 AM 51.8 °F 50.0 °F 94% 29.88 in 7.0 mi NW 4.6 mph - 0.01 in Rain Light Rain
6:45 AM 51.8 °F 50.0 °F 94% 29.87 in 5.0 mi Calm Calm - 0.07 in Rain , Thunderstorm Rain
6:53 AM 52.0 °F 51.1 °F 97% 29.88 in 6.0 mi East 4.6 mph - 0.10 in Rain , Thunderstorm Light Rain
6:56 AM 51.8 °F 51.8 °F 100% 29.88 in 4.0 mi East 3.5 mph - 0.02 in Rain Rain
7:09 AM 51.8 °F 51.8 °F 100% 29.90 in 8.0 mi NW 6.9 mph - 0.04 in Rain Light Rain
7:53 AM 52.0 °F 51.1 °F 97% 29.89 in 10.0 mi NNE 5.8 mph - 0.09 in   Overcast
8:53 AM 52.0 °F 50.0 °F 93% 29.93 in 10.0 mi NNW 5.8 mph - 0.00 in   Overcast
9:53 AM 50.0 °F 48.0 °F 93% 29.94 in 10.0 mi North 8.1 mph - N/A   Overcast
10:53 AM 52.0 °F 50.0 °F 93% 29.95 in 10.0 mi North 8.1 mph - 0.01 in   Overcast
11:53 AM 52.0 °F 48.9 °F 89% 29.97 in 10.0 mi NNW 12.7 mph - 0.00 in Rain Light Rain
12:53 PM 53.1 °F 48.9 °F 86% 29.96 in 10.0 mi NNW 10.4 mph - 0.01 in   Overcast
1:00 PM 51.8 °F 48.2 °F 88% 29.96 in 10.0 mi NNW 12.7 mph 18.4 mph N/A   Overcast
1:30 PM 51.8 °F 48.2 °F 88% 29.93 in 10.0 mi NNE 10.4 mph - N/A   Overcast
1:43 PM 51.8 °F 46.4 °F 82% 29.94 in 10.0 mi NNW 6.9 mph - N/A   Overcast
1:53 PM 53.1 °F 46.9 °F 80% 29.94 in 10.0 mi North 6.9 mph - N/A   Overcast
2:53 PM 57.0 °F 50.0 °F 77% 29.93 in 10.0 mi Variable 3.5 mph - N/A   Mostly Cloudy
3:02 PM 57.2 °F 48.2 °F 72% 29.92 in 10.0 mi Calm Calm - N/A   Overcast
3:53 PM 57.9 °F 50.0 °F 75% 29.91 in 10.0 mi North 10.4 mph - N/A   Overcast
4:53 PM 55.9 °F 50.0 °F 80% 29.92 in 10.0 mi North 9.2 mph - N/A   Overcast
5:02 PM 57.2 °F 50.0 °F 77% 29.93 in 10.0 mi NW 5.8 mph - N/A   Overcast
5:44 PM 55.4 °F 50.0 °F 82% 29.93 in 10.0 mi NNW 9.2 mph - N/A   Overcast
5:53 PM 55.9 °F 50.0 °F 80% 29.94 in 10.0 mi NNW 6.9 mph - N/A   Overcast
6:16 PM 57.2 °F 50.0 °F 77% 29.95 in 10.0 mi North 8.1 mph - N/A   Overcast
6:35 PM 57.2 °F 48.2 °F 72% 29.95 in 10.0 mi NW 4.6 mph - N/A   Mostly Cloudy
6:53 PM 57.9 °F 48.9 °F 72% 29.95 in 10.0 mi North 5.8 mph - N/A   Mostly Cloudy
7:15 PM 57.2 °F 48.2 °F 72% 29.96 in 10.0 mi North 4.6 mph - N/A   Overcast
7:53 PM 55.9 °F 50.0 °F 80% 29.97 in 10.0 mi NE 3.5 mph - N/A   Overcast
8:08 PM 55.4 °F 50.0 °F 82% 29.97 in 10.0 mi NNE 4.6 mph - N/A   Overcast
8:53 PM 55.0 °F 50.0 °F 83% 29.99 in 10.0 mi Calm Calm - N/A   Overcast
9:53 PM 55.0 °F 51.1 °F 86% 30.03 in 10.0 mi NNE 3.5 mph - N/A   Overcast
10:53 PM 55.0 °F 51.1 °F 86% 30.04 in 10.0 mi North 4.6 mph - N/A   Overcast
11:53 PM 54.0 °F 50.0 °F 86% 30.05 in 10.0 mi North 3.5 mph - N/A   Clear